,,PA_Meas_PMT16A,,PR_Meas_QMR101_102,,RH_Meas_QMH101,,SR_Meas_QMS101,,TA_Meas_QMH101,,GenWind,,GenWind,
time,status,PA,status,PR,status,RH,status,SR,status,TA,status,DirAvg,status,SpdAvg,
2014-02-02, 07:22:04,VALID,917.192,VALID,0,VALID,97.1452,VALID,63.82,VALID,19.0983,VALID,140,VALID,0.867969,
2014-02-02, 07:23:04,VALID,917.196,VALID,0,VALID,97.1452,VALID,64.0349,VALID,19.1583,VALID,143,VALID,0.660547,
2014-02-02, 07:24:04,VALID,917.21,VALID,0,VALID,97.1452,VALID,65.8614,VALID,19.1388,VALID,135,VALID,1.42578,
2014-02-02, 07:25:04,VALID,917.231,VALID,0,VALID,97.1452,VALID,67.2582,VALID,19.1388,VALID,158,VALID,1.3043,
2014-02-02, 07:26:04,VALID,917.237,VALID,0,VALID,97.1452,VALID,67.5805,VALID,19.1178,VALID,139,VALID,1.66914,
2014-02-02, 07:27:04,VALID,917.218,VALID,0,VALID,97.1452,VALID,74.9939,VALID,19.1388,VALID,149,VALID,1.25664,
2014-02-02, 07:28:04,VALID,917.244,VALID,0,VALID,97.1376,VALID,79.5065,VALID,19.1178,VALID,153,VALID,1.59648,
2014-02-02, 07:29:04,VALID,917.232,VALID,0,VALID,97.1452,VALID,77.7874,VALID,19.0983,VALID,146,VALID,1.38984,
2014-02-02, 07:30:04,VALID,917.231,VALID,0,VALID,97.1528,VALID,79.7213,VALID,19.0983,VALID,144,VALID,1.39375,
2014-02-02, 07:31:04,VALID,917.306,VALID,0,VALID,97.1376,VALID,83.2669,VALID,19.1178,VALID,163,VALID,1.49727,
2014-02-02, 07:32:04,VALID,917.356,VALID,0,VALID,97.1452,VALID,82.8371,VALID,19.1583,VALID,157,VALID,1.03789,
2014-02-02, 07:33:04,VALID,917.385,VALID,0,VALID,97.1681,VALID,91.8622,VALID,19.1388,VALID,165,VALID,1.0832,
2014-02-02, 07:34:04,VALID,917.399,VALID,0,VALID,97.1376,VALID,105.292,VALID,19.1763,VALID,188,VALID,0.844141,
2014-02-02, 07:35:04,VALID,917.369,VALID,0,VALID,97.1452,VALID,107.441,VALID,19.1763,VALID,166,VALID,1.49141,
2014-02-02, 07:36:04,VALID,917.364,VALID,0,VALID,97.1299,VALID,110.235,VALID,19.2153,VALID,161,VALID,1.20039,
2014-02-02, 07:37:04,VALID,917.339,VALID,0,VALID,97.1452,VALID,114.317,VALID,19.2153,VALID,163,VALID,1.40039,
2014-02-02, 07:38:04,VALID,917.361,VALID,0,VALID,97.1376,VALID,114.532,VALID,19.2153,VALID,152,VALID,1.31094,
2014-02-02, 07:39:04,VALID,917.344,VALID,0,VALID,97.1452,VALID,116.896,VALID,19.2738,VALID,147,VALID,0.740234,
2014-02-02, 07:40:04,VALID,917.355,VALID,0,VALID,97.1147,VALID,125.706,VALID,19.3533,VALID,159,VALID,1.23359,
2014-02-02, 07:41:04,VALID,917.367,VALID,0,VALID,97.1147,VALID,142.789,VALID,19.3518,VALID,167,VALID,0.975781,
2014-02-02, 07:42:04,VALID,917.368,VALID,0,VALID,97.1376,VALID,149.451,VALID,19.3713,VALID,165,VALID,1.12617,
2014-02-02, 07:43:04,VALID,917.396,VALID,0,VALID,97.1223,VALID,154.178,VALID,19.4313,VALID,164,VALID,1.10703,
2014-02-02, 07:44:04,VALID,917.41,VALID,0,VALID,97.1223,VALID,154.823,VALID,19.4883,VALID,162,VALID,0.624219,
2014-02-02, 07:45:04,VALID,917.402,VALID,0,VALID,97.1147,VALID,153.856,VALID,19.5468,VALID,160,VALID,1.42461,
2014-02-02, 07:46:04,VALID,917.356,VALID,0,VALID,97.0918,VALID,153.211,VALID,19.5663,VALID,164,VALID,1.39492,
2014-02-02, 07:47:04,VALID,917.353,VALID,0,VALID,97.0766,VALID,159.765,VALID,19.5678,VALID,146,VALID,0.692187,
2014-02-02, 07:48:04,VALID,917.381,VALID,0,VALID,97.0766,VALID,163.955,VALID,19.6653,VALID,153,VALID,0.478516,
2014-02-02, 07:49:04,VALID,917.418,VALID,0,VALID,97.0842,VALID,166.856,VALID,19.6638,VALID,165,VALID,1.40195,
2014-02-02, 07:50:04,VALID,917.399,VALID,0,VALID,97.0766,VALID,171.476,VALID,19.7223,VALID,152,VALID,0.996484,
2014-02-02, 07:51:04,VALID,917.432,VALID,0,VALID,97.0613,VALID,176.418,VALID,19.8003,VALID,143,VALID,0.9875,
2014-02-02, 07:52:04,VALID,917.435,VALID,0,VALID,97.0156,VALID,183.724,VALID,19.8993,VALID,148,VALID,0.928516,
2014-02-02, 07:53:04,VALID,917.469,VALID,0,VALID,97.0003,VALID,185.766,VALID,19.9773,VALID,141,VALID,0.751172,
2014-02-02, 07:54:04,VALID,917.476,VALID,0,VALID,96.9851,VALID,186.088,VALID,20.0358,VALID,161,VALID,0.489453,
2014-02-02, 07:55:04,VALID,917.533,VALID,0,VALID,96.947,VALID,190.063,VALID,20.1334,VALID,175,VALID,1.09609,
2014-02-02, 07:56:04,VALID,917.552,VALID,0,VALID,96.9241,VALID,193.502,VALID,20.2699,VALID,156,VALID,0.439063,
2014-02-02, 07:57:04,VALID,917.552,VALID,0,VALID,96.8936,VALID,196.51,VALID,20.3479,VALID,182,VALID,0.810938,
2014-02-02, 07:58:04,VALID,917.57,VALID,0,VALID,96.8479,VALID,195.543,VALID,20.4049,VALID,165,VALID,0.737109,
2014-02-02, 07:59:04,VALID,917.559,VALID,0,VALID,96.7945,VALID,192.749,VALID,20.3074,VALID,153,VALID,1.39766,
2014-02-02, 08:00:04,VALID,917.56,VALID,0,VALID,96.7107,VALID,195.435,VALID,20.4049,VALID,154,VALID,0.809766,
2014-02-02, 08:01:04,VALID,917.545,VALID,0,VALID,96.6268,VALID,200.055,VALID,20.465,VALID,148,VALID,1.17656,
2014-02-02, 08:02:04,VALID,917.589,VALID,0,VALID,96.5201,VALID,201.989,VALID,20.4439,VALID,166,VALID,1.12617,
2014-02-02, 08:03:04,VALID,917.591,VALID,0,VALID,96.3676,VALID,202.741,VALID,20.5024,VALID,163,VALID,1.12227,
2014-02-02, 08:04:04,VALID,917.554,VALID,0,VALID,96.1694,VALID,206.394,VALID,20.5024,VALID,156,VALID,0.821094,
2014-02-02, 08:05:04,VALID,917.54,VALID,0,VALID,95.9254,VALID,208.328,VALID,20.5804,VALID,143,VALID,0.383594,
2014-02-02, 08:06:04,VALID,917.575,VALID,0,VALID,95.6053,VALID,217.353,VALID,20.678,VALID,139,VALID,0.929297,
2014-02-02, 08:07:04,VALID,917.587,VALID,0,VALID,95.1783,VALID,220.362,VALID,20.7966,VALID,155,VALID,0.505859,
2014-02-02, 08:08:04,VALID,917.593,VALID,0,VALID,94.5304,VALID,221.329,VALID,20.8925,VALID,131,VALID,0.445703,
2014-02-02, 08:09:04,VALID,917.633,VALID,0,VALID,93.2954,VALID,231.321,VALID,21.0096,VALID,162,VALID,0.953906,
2014-02-02, 08:10:04,VALID,917.682,VALID,0,VALID,91.4505,VALID,237.23,VALID,21.1461,VALID,158,VALID,0.736719,
2014-02-02, 08:11:04,VALID,917.692,VALID,0,VALID,89.0796,VALID,238.412,VALID,21.1657,VALID,157,VALID,0.798437,
2014-02-02, 08:12:04,VALID,917.751,VALID,0,VALID,88.5612,VALID,248.619,VALID,21.2047,VALID,164,VALID,1.19687,
2014-02-02, 08:13:04,VALID,917.726,VALID,0,VALID,89.0415,VALID,255.495,VALID,21.3006,VALID,163,VALID,0.399219,
2014-02-02, 08:14:04,VALID,917.72,VALID,0,VALID,88.5765,VALID,254.85,VALID,21.4388,VALID,116,VALID,1.04141,
2014-02-02, 08:15:04,VALID,917.693,VALID,0,VALID,87.8522,VALID,259.578,VALID,21.3998,VALID,119,VALID,1.23984,
2014-02-02, 08:16:04,VALID,917.676,VALID,0,VALID,88.3173,VALID,260.867,VALID,21.3998,VALID,127,VALID,0.915625,
2014-02-02, 08:17:04,VALID,917.65,VALID,0,VALID,89.0034,VALID,266.454,VALID,21.4973,VALID,95,VALID,0.663281,
2014-02-02, 08:18:04,VALID,917.705,VALID,0,VALID,88.0657,VALID,273.223,VALID,21.5347,VALID,96,VALID,1.03203,
2014-02-02, 08:19:04,VALID,917.705,VALID,0,VALID,87.7226,VALID,277.306,VALID,21.5949,VALID,108,VALID,0.736719,
2014-02-02, 08:20:04,VALID,917.714,VALID,0,VALID,88.02,VALID,284.289,VALID,21.6534,VALID,94,VALID,0.819922,
2014-02-02, 08:21:04,VALID,917.718,VALID,0,VALID,87.8827,VALID,289.339,VALID,21.6908,VALID,101,VALID,0.715234,
2014-02-02, 08:22:04,VALID,917.719,VALID,0,VALID,87.3262,VALID,287.727,VALID,21.7883,VALID,84,VALID,0.811719,
2014-02-02, 08:23:04,VALID,917.739,VALID,0,VALID,85.6643,VALID,295.785,VALID,21.8469,VALID,113,VALID,1.28086,
2014-02-02, 08:24:04,VALID,917.74,VALID,0,VALID,86.1217,VALID,300.083,VALID,21.7883,VALID,95,VALID,1.14375,
2014-02-02, 08:25:04,VALID,917.713,VALID,0,VALID,86.9222,VALID,295.033,VALID,21.8274,VALID,142,VALID,1.0957,
2014-02-02, 08:26:04,VALID,917.721,VALID,0,VALID,86.2513,VALID,304.703,VALID,21.8079,VALID,168,VALID,1.00625,
2014-02-02, 08:27:04,VALID,917.748,VALID,0,VALID,85.611,VALID,296.215,VALID,21.8469,VALID,165,VALID,0.85625,
2014-02-02, 08:28:04,VALID,917.756,VALID,0,VALID,84.7724,VALID,306.422,VALID,21.9249,VALID,156,VALID,0.95,
2014-02-02, 08:29:04,VALID,917.743,VALID,0,VALID,85.2908,VALID,311.364,VALID,21.9444,VALID,148,VALID,0.699609,
2014-02-02, 08:30:04,VALID,917.767,VALID,0,VALID,85.2145,VALID,318.563,VALID,22.081,VALID,149,VALID,0.883984,
2014-02-02, 08:31:04,VALID,917.756,VALID,0,VALID,84.6352,VALID,330.059,VALID,22.2388,VALID,172,VALID,0.767578,
2014-02-02, 08:32:04,VALID,917.746,VALID,0,VALID,83.7204,VALID,340.803,VALID,22.395,VALID,172,VALID,0.992969,
2014-02-02, 08:33:04,VALID,917.745,VALID,0,VALID,82.7598,VALID,347.357,VALID,22.3542,VALID,162,VALID,0.9875,
2014-02-02, 08:34:04,VALID,917.758,VALID,0,VALID,83.2248,VALID,351.655,VALID,22.3559,VALID,169,VALID,0.660937,
2014-02-02, 08:35:04,VALID,917.777,VALID,0,VALID,83.3392,VALID,355.953,VALID,22.4925,VALID,175,VALID,0.166016,
2014-02-02, 08:36:04,VALID,917.733,VALID,0,VALID,83.7661,VALID,354.233,VALID,22.647,VALID,125,VALID,0.691016,
2014-02-02, 08:37:04,VALID,917.735,VALID,0,VALID,81.1665,VALID,360.358,VALID,22.686,VALID,162,VALID,0.521094,
2014-02-02, 08:38:04,VALID,917.739,VALID,0,VALID,81.3723,VALID,360.573,VALID,22.8226,VALID,162,VALID,0,
2014-02-02, 08:39:04,VALID,917.733,VALID,0,VALID,81.9746,VALID,366.912,VALID,23.0391,VALID,134,VALID,0.466016,
2014-02-02, 08:40:04,VALID,917.701,VALID,0,VALID,79.436,VALID,372.606,VALID,23.2538,VALID,98,VALID,0.892578,
2014-02-02, 08:41:04,VALID,917.707,VALID,0,VALID,79.3598,VALID,375.829,VALID,23.252,VALID,55,VALID,1.50117,
2014-02-02, 08:42:04,VALID,917.681,VALID,0,VALID,80.6252,VALID,380.557,VALID,23.3088,VALID,34,VALID,0.740234,
2014-02-02, 08:43:04,VALID,917.694,VALID,0,VALID,78.8109,VALID,386.036,VALID,23.3088,VALID,111,VALID,1.06758,
2014-02-02, 08:44:04,VALID,917.755,VALID,0,VALID,78.2772,VALID,388.937,VALID,23.2307,VALID,145,VALID,0.727344,
2014-02-02, 08:45:04,VALID,917.784,VALID,0,VALID,78.8871,VALID,395.061,VALID,23.2502,VALID,198,VALID,0.855078,
2014-02-02, 08:46:04,VALID,917.781,VALID,0,VALID,79.0396,VALID,400.111,VALID,23.3674,VALID,160,VALID,0.554688,
2014-02-02, 08:47:04,VALID,917.759,VALID,0,VALID,78.5517,VALID,406.342,VALID,23.6211,VALID,159,VALID,0.517187,
2014-02-02, 08:48:04,VALID,917.755,VALID,0,VALID,76.4324,VALID,405.483,VALID,23.7187,VALID,150,VALID,1.17344,
2014-02-02, 08:49:04,VALID,917.764,VALID,0,VALID,76.8059,VALID,408.706,VALID,23.6211,VALID,125,VALID,1.02383,
2014-02-02, 08:50:04,VALID,917.773,VALID,0,VALID,77.5835,VALID,414.723,VALID,23.6211,VALID,165,VALID,0.984766,
2014-02-02, 08:51:04,VALID,917.84,VALID,0,VALID,77.5987,VALID,420.095,VALID,23.6797,VALID,202,VALID,0.726953,
2014-02-02, 08:52:04,VALID,917.823,VALID,0,VALID,75.0983,VALID,427.401,VALID,23.7205,VALID,210,VALID,0.644141,
2014-02-02, 08:53:04,VALID,917.842,VALID,0,VALID,74.3893,VALID,416.872,VALID,23.701,VALID,186,VALID,0.983203,
2014-02-02, 08:54:04,VALID,917.844,VALID,0,VALID,75.609,VALID,409.888,VALID,23.6229,VALID,186,VALID,0.634375,
2014-02-02, 08:55:04,VALID,917.815,VALID,0,VALID,76.4476,VALID,420.202,VALID,23.6797,VALID,164,VALID,0.9375,
2014-02-02, 08:56:04,VALID,917.798,VALID,0,VALID,75.6243,VALID,425.897,VALID,23.6424,VALID,163,VALID,0.545313,
2014-02-02, 08:57:04,VALID,917.773,VALID,0,VALID,74.031,VALID,444.591,VALID,23.74,VALID,164,VALID,0.408203,
2014-02-02, 08:58:04,VALID,917.75,VALID,0,VALID,73.1924,VALID,417.409,VALID,23.8767,VALID,124,VALID,0.842578,
2014-02-02, 08:59:04,VALID,917.724,VALID,0,VALID,74.618,VALID,331.456,VALID,23.8749,VALID,124,VALID,0.139062,
2014-02-02, 09:00:04,VALID,917.763,VALID,0,VALID,75.1593,VALID,251.52,VALID,23.8358,VALID,130,VALID,0.695703,
2014-02-02, 09:01:04,VALID,917.751,VALID,0,VALID,74.1911,VALID,253.024,VALID,23.7773,VALID,129,VALID,0.580859,
2014-02-02, 09:02:04,VALID,917.769,VALID,0,VALID,74.9992,VALID,239.486,VALID,23.8749,VALID,142,VALID,0.598437,
2014-02-02, 09:03:04,VALID,917.784,VALID,0,VALID,73.9243,VALID,343.812,VALID,23.9139,VALID,183,VALID,1.05391,
2014-02-02, 09:04:04,VALID,917.756,VALID,0,VALID,73.6727,VALID,453.724,VALID,23.8749,VALID,184,VALID,0.641016,
2014-02-02, 09:05:04,VALID,917.734,VALID,0,VALID,75.7081,VALID,480.262,VALID,23.9725,VALID,154,VALID,0.628516,
2014-02-02, 09:06:04,VALID,917.728,VALID,0,VALID,73.7794,VALID,479.94,VALID,24.1287,VALID,86,VALID,1.18086,
2014-02-02, 09:07:04,VALID,917.74,VALID,0,VALID,73.5965,VALID,480.692,VALID,24.1287,VALID,75,VALID,0.95,
2014-02-02, 09:08:04,VALID,917.788,VALID,0,VALID,74.8467,VALID,478.758,VALID,24.0896,VALID,75,VALID,0.696094,
2014-02-02, 09:09:04,VALID,917.793,VALID,0,VALID,74.1301,VALID,483.807,VALID,24.1482,VALID,76,VALID,0.580078,
2014-02-02, 09:10:04,VALID,917.821,VALID,0,VALID,74.9534,VALID,481.874,VALID,24.1482,VALID,75,VALID,0.771484,
2014-02-02, 09:11:04,VALID,917.8,VALID,0,VALID,74.2292,VALID,488.427,VALID,24.2263,VALID,74,VALID,1.16172,
2014-02-02, 09:12:04,VALID,917.794,VALID,0,VALID,72.3843,VALID,503.684,VALID,24.3044,VALID,75,VALID,0.607813,
2014-02-02, 09:13:04,VALID,917.806,VALID,0,VALID,72.7655,VALID,525.924,VALID,24.4606,VALID,75,VALID,0.455469,
2014-02-02, 09:14:04,VALID,917.796,VALID,0,VALID,72.1099,VALID,527.751,VALID,24.6363,VALID,75,VALID,0.0140625,
2014-02-02, 09:15:04,VALID,917.779,VALID,0,VALID,69.4036,VALID,530.007,VALID,24.8121,VALID,75,VALID,0.754687,
2014-02-02, 09:16:04,VALID,917.769,VALID,0,VALID,68.9157,VALID,548.809,VALID,24.8511,VALID,75,VALID,0.286719,
2014-02-02, 09:17:04,VALID,917.798,VALID,0,VALID,68.1915,VALID,532.586,VALID,25.0074,VALID,75,VALID,0.975781,
2014-02-02, 09:18:04,VALID,917.781,VALID,0,VALID,69.5713,VALID,528.825,VALID,24.9683,VALID,75,VALID,0.848828,
2014-02-02, 09:19:04,VALID,917.821,VALID,0,VALID,69.335,VALID,511.42,VALID,25.0074,VALID,75,VALID,0.551172,
2014-02-02, 09:20:04,VALID,917.812,VALID,0,VALID,68.2448,VALID,507.122,VALID,25.2007,VALID,75,VALID,0,
2014-02-02, 09:21:04,VALID,917.808,VALID,0,VALID,68.3134,VALID,507.659,VALID,25.3179,VALID,75,VALID,0.383594,
2014-02-02, 09:22:04,VALID,917.808,VALID,0,VALID,68.6946,VALID,468.121,VALID,25.5171,VALID,75,VALID,0.5,
2014-02-02, 09:23:04,VALID,917.787,VALID,0,VALID,67.0479,VALID,478.113,VALID,25.6128,VALID,75,VALID,0.846875,
2014-02-02, 09:24:04,VALID,917.779,VALID,0,VALID,67.856,VALID,486.923,VALID,25.3608,VALID,75,VALID,0.421484,
2014-02-02, 09:25:04,VALID,917.814,VALID,0,VALID,68.2372,VALID,493.477,VALID,25.1831,VALID,304,VALID,1.0457,
2014-02-02, 09:26:04,VALID,917.784,VALID,0,VALID,69.3731,VALID,487.568,VALID,25.0074,VALID,304,VALID,1.09023,
2014-02-02, 09:27:04,VALID,917.808,VALID,0,VALID,68.9767,VALID,515.932,VALID,24.7144,VALID,303,VALID,0.934375,
2014-02-02, 09:28:04,VALID,917.841,VALID,0,VALID,69.2282,VALID,523.238,VALID,24.5387,VALID,304,VALID,0.477734,
2014-02-02, 09:29:04,VALID,917.813,VALID,0,VALID,69.4569,VALID,530.652,VALID,24.4801,VALID,305,VALID,0.303125,
2014-02-02, 09:30:04,VALID,917.802,VALID,0,VALID,70.2193,VALID,530.867,VALID,24.6168,VALID,346,VALID,1.03398,
2014-02-02, 09:31:04,VALID,917.799,VALID,0,VALID,69.7619,VALID,523.561,VALID,24.8121,VALID,359,VALID,1.08633,
2014-02-02, 09:32:04,VALID,917.791,VALID,0,VALID,68.3515,VALID,510.453,VALID,24.9078,VALID,360,VALID,0.409766,
2014-02-02, 09:33:04,VALID,917.772,VALID,0,VALID,69.0605,VALID,496.915,VALID,25.105,VALID,360,VALID,0.343359,
2014-02-02, 09:34:04,VALID,917.785,VALID,0,VALID,68.2601,VALID,253.991,VALID,25.3198,VALID,348,VALID,0.685547,
2014-02-02, 09:35:04,VALID,917.753,VALID,0,VALID,68.1686,VALID,458.559,VALID,25.3003,VALID,281,VALID,1.00977,
2014-02-02, 09:36:04,VALID,917.779,VALID,0,VALID,68.1915,VALID,291.38,VALID,24.9683,VALID,276,VALID,0.697656,
2014-02-02, 09:37:04,VALID,917.787,VALID,0,VALID,68.969,VALID,468.336,VALID,24.8316,VALID,276,VALID,0.554297,
2014-02-02, 09:38:04,VALID,917.753,VALID,0,VALID,69.8305,VALID,238.197,VALID,24.8297,VALID,276,VALID,0.349609,
2014-02-02, 09:39:04,VALID,917.767,VALID,0,VALID,69.9143,VALID,241.528,VALID,24.8707,VALID,280,VALID,0.267578,
2014-02-02, 09:40:04,VALID,917.779,VALID,0,VALID,69.7161,VALID,241.528,VALID,24.8316,VALID,298,VALID,1.07227,
2014-02-02, 09:41:04,VALID,917.799,VALID,0,VALID,70.6233,VALID,252.272,VALID,24.6735,VALID,298,VALID,0,
2014-02-02, 09:42:04,VALID,917.797,VALID,0,VALID,71.3399,VALID,388.4,VALID,24.7144,VALID,298,VALID,0.431641,
2014-02-02, 09:43:04,VALID,917.806,VALID,0,VALID,71.3475,VALID,428.368,VALID,24.9097,VALID,298,VALID,0.301953,
2014-02-02, 09:44:04,VALID,917.794,VALID,0,VALID,70.4099,VALID,422.996,VALID,24.9859,VALID,298,VALID,0.703516,
2014-02-02, 09:45:04,VALID,917.754,VALID,0,VALID,70.2345,VALID,461.245,VALID,24.9878,VALID,298,VALID,0.560156,
2014-02-02, 09:46:04,VALID,917.764,VALID,0,VALID,69.2206,VALID,491.006,VALID,25.0055,VALID,298,VALID,0.683203,
2014-02-02, 09:47:04,VALID,917.774,VALID,0,VALID,69.0986,VALID,483.807,VALID,25.0855,VALID,322,VALID,0.475391,
2014-02-02, 09:48:04,VALID,917.782,VALID,0,VALID,67.8941,VALID,477.146,VALID,25.1617,VALID,277,VALID,0.559766,
2014-02-02, 09:49:04,VALID,917.752,VALID,0,VALID,67.7036,VALID,488.427,VALID,25.2593,VALID,276,VALID,0.329688,
2014-02-02, 09:50:04,VALID,917.767,VALID,0,VALID,68.4125,VALID,507.552,VALID,25.4351,VALID,277,VALID,0.424609,
2014-02-02, 09:51:04,VALID,917.747,VALID,0,VALID,65.9426,VALID,523.668,VALID,25.5523,VALID,277,VALID,0.576953,
2014-02-02, 09:52:04,VALID,917.749,VALID,0,VALID,64.3721,VALID,547.305,VALID,25.5718,VALID,277,VALID,0.812109,
2014-02-02, 09:53:04,VALID,917.753,VALID,0,VALID,65.5233,VALID,555.686,VALID,25.5132,VALID,277,VALID,0.833984,
2014-02-02, 09:54:04,VALID,917.74,VALID,0,VALID,66.7049,VALID,538.495,VALID,25.6109,VALID,277,VALID,0.433594,
2014-02-02, 09:55:04,VALID,917.712,VALID,0,VALID,66.4305,VALID,527.751,VALID,25.7261,VALID,277,VALID,0.669141,
2014-02-02, 09:56:04,VALID,917.704,VALID,0,VALID,65.1878,VALID,522.594,VALID,25.6109,VALID,277,VALID,0.567578,
2014-02-02, 09:57:04,VALID,917.698,VALID,0,VALID,65.9502,VALID,500.246,VALID,25.6499,VALID,345,VALID,0.989062,
2014-02-02, 09:58:04,VALID,917.683,VALID,0,VALID,66.6287,VALID,516.792,VALID,25.687,VALID,349,VALID,1.07383,
2014-02-02, 09:59:04,VALID,917.648,VALID,0,VALID,65.2183,VALID,524.957,VALID,25.7476,VALID,306,VALID,0.610937,
2014-02-02, 10:00:04,VALID,917.658,VALID,0,VALID,65.4242,VALID,532.371,VALID,25.8062,VALID,304,VALID,0.299609,
2014-02-02, 10:01:04,VALID,917.659,VALID,0,VALID,66.0035,VALID,559.124,VALID,26.0406,VALID,327,VALID,0.930469,
2014-02-02, 10:02:04,VALID,917.687,VALID,0,VALID,64.7152,VALID,574.488,VALID,26.2164,VALID,348,VALID,0.417578,
2014-02-02, 10:03:04,VALID,917.62,VALID,0,VALID,63.6403,VALID,575.347,VALID,26.275,VALID,264,VALID,1.61094,
2014-02-02, 10:04:04,VALID,917.667,VALID,0,VALID,63.3735,VALID,555.686,VALID,25.982,VALID,267,VALID,1.02344,
2014-02-02, 10:05:04,VALID,917.651,VALID,0,VALID,64.4484,VALID,548.595,VALID,25.7476,VALID,255,VALID,0.979297,
2014-02-02, 10:06:04,VALID,917.664,VALID,0,VALID,65.2869,VALID,570.835,VALID,25.4937,VALID,249,VALID,1.18906,
2014-02-02, 10:07:04,VALID,917.638,VALID,0,VALID,66.6439,VALID,554.074,VALID,25.3374,VALID,249,VALID,0.573438,
2014-02-02, 10:08:04,VALID,917.664,VALID,0,VALID,67.7722,VALID,561.38,VALID,25.2379,VALID,290,VALID,1.11367,
2014-02-02, 10:09:04,VALID,917.624,VALID,0,VALID,68.7022,VALID,565.678,VALID,25.1598,VALID,307,VALID,0.508594,
2014-02-02, 10:10:04,VALID,917.655,VALID,0,VALID,68.3439,VALID,551.71,VALID,25.316,VALID,307,VALID,0.282813,
2014-02-02, 10:11:04,VALID,917.616,VALID,0,VALID,67.0327,VALID,574.273,VALID,25.5308,VALID,307,VALID,0.878125,
2014-02-02, 10:12:04,VALID,917.627,VALID,0,VALID,65.7901,VALID,583.943,VALID,25.5327,VALID,290,VALID,0.951563,
2014-02-02, 10:13:04,VALID,917.635,VALID,0,VALID,65.3174,VALID,578.356,VALID,25.2965,VALID,248,VALID,0.930859,
2014-02-02, 10:14:04,VALID,917.586,VALID,0,VALID,66.5905,VALID,526.354,VALID,25.3746,VALID,286,VALID,0.766797,
2014-02-02, 10:15:04,VALID,917.497,VALID,0,VALID,69.0377,VALID,578.463,VALID,25.4351,VALID,34,VALID,2.09414,
2014-02-02, 10:16:04,VALID,917.5,VALID,0,VALID,68.1915,VALID,553.967,VALID,25.4937,VALID,10,VALID,1.18516,
2014-02-02, 10:17:04,VALID,917.497,VALID,0,VALID,68.0847,VALID,534.197,VALID,25.5132,VALID,26,VALID,1.17305,
2014-02-02, 10:18:04,VALID,917.514,VALID,0,VALID,65.9959,VALID,527.536,VALID,25.6675,VALID,345,VALID,0.496484,
2014-02-02, 10:19:04,VALID,917.526,VALID,0,VALID,65.2869,VALID,535.809,VALID,25.7651,VALID,342,VALID,0.397656,
2014-02-02, 10:20:04,VALID,917.512,VALID,0,VALID,64.3874,VALID,553.107,VALID,25.9429,VALID,332,VALID,0.928125,
2014-02-02, 10:21:04,VALID,917.489,VALID,0,VALID,68.3515,VALID,574.703,VALID,25.9624,VALID,360,VALID,1.73359,
2014-02-02, 10:22:04,VALID,917.521,VALID,0,VALID,65.7596,VALID,604.464,VALID,26.1578,VALID,350,VALID,0.84375,
2014-02-02, 10:23:04,VALID,917.518,VALID,0,VALID,66.5219,VALID,574.703,VALID,26.2554,VALID,25,VALID,1.21602,
2014-02-02, 10:24:04,VALID,917.525,VALID,0,VALID,63.221,VALID,443.302,VALID,26.2965,VALID,331,VALID,0.558984,
2014-02-02, 10:25:04,VALID,917.496,VALID,0,VALID,64.2883,VALID,536.991,VALID,26.3336,VALID,310,VALID,0.7125,
2014-02-02, 10:26:04,VALID,917.472,VALID,0,VALID,63.4497,VALID,536.669,VALID,26.4528,VALID,304,VALID,0.714844,
2014-02-02, 10:27:04,VALID,917.468,VALID,0,VALID,63.1371,VALID,530.222,VALID,26.2359,VALID,304,VALID,0.639063,
2014-02-02, 10:28:04,VALID,917.438,VALID,0,VALID,64.6085,VALID,541.396,VALID,26.1382,VALID,304,VALID,0.730078,
2014-02-02, 10:29:04,VALID,917.462,VALID,0,VALID,66.1331,VALID,443.625,VALID,25.982,VALID,275,VALID,1.36367,
2014-02-02, 10:30:04,VALID,917.473,VALID,0,VALID,67.5968,VALID,342.63,VALID,25.8452,VALID,330,VALID,1.15313,
2014-02-02, 10:31:04,VALID,917.46,VALID,0,VALID,66.6591,VALID,488.427,VALID,25.8843,VALID,6,VALID,0.8625,
2014-02-02, 10:32:04,VALID,917.469,VALID,0,VALID,65.9654,VALID,457.484,VALID,26.0601,VALID,270,VALID,1.39961,
2014-02-02, 10:33:04,VALID,917.428,VALID,0,VALID,65.1726,VALID,374.862,VALID,25.982,VALID,262,VALID,0.691016,
2014-02-02, 10:34:04,VALID,917.447,VALID,0,VALID,67.5511,VALID,365.192,VALID,26.0406,VALID,324,VALID,0.628906,
2014-02-02, 10:35:04,VALID,917.4,VALID,0,VALID,64.578,VALID,362.614,VALID,26.314,VALID,2,VALID,0.570703,
2014-02-02, 10:36:04,VALID,917.378,VALID,0,VALID,62.6492,VALID,357.134,VALID,26.2359,VALID,288,VALID,1.13242,
2014-02-02, 10:37:04,VALID,917.367,VALID,0,VALID,64.7457,VALID,351.87,VALID,26.1558,VALID,26,VALID,1.46719,
2014-02-02, 10:38:04,VALID,917.365,VALID,0,VALID,62.6569,VALID,328.018,VALID,26.2339,VALID,310,VALID,1.22812,
2014-02-02, 10:39:04,VALID,917.359,VALID,0,VALID,62.2299,VALID,323.29,VALID,26.2164,VALID,24,VALID,0.812891,
2014-02-02, 10:40:04,VALID,917.329,VALID,0,VALID,63.3887,VALID,320.175,VALID,26.2144,VALID,349,VALID,1.38203,
2014-02-02, 10:41:04,VALID,917.319,VALID,0,VALID,64.3721,VALID,319.1,VALID,26.1362,VALID,5,VALID,1.08203,
2014-02-02, 10:42:04,VALID,917.362,VALID,0,VALID,65.3098,VALID,321.894,VALID,26.2534,VALID,27,VALID,0.751953,
2014-02-02, 10:43:04,VALID,917.352,VALID,0,VALID,63.6098,VALID,317.489,VALID,26.4292,VALID,306,VALID,0.6375,
2014-02-02, 10:44:04,VALID,917.382,VALID,0,VALID,61.46,VALID,329.522,VALID,26.4878,VALID,312,VALID,1.89688,
2014-02-02, 10:45:04,VALID,917.403,VALID,0,VALID,64.0596,VALID,347.035,VALID,26.4097,VALID,4,VALID,1.89023,
2014-02-02, 10:46:04,VALID,917.319,VALID,0,VALID,60.4461,VALID,368.523,VALID,26.4292,VALID,338,VALID,1.76992,
2014-02-02, 10:47:04,VALID,917.262,VALID,0,VALID,62.0089,VALID,386.143,VALID,26.3706,VALID,13,VALID,1.51563,
2014-02-02, 10:48:04,VALID,917.261,VALID,0,VALID,63.9605,VALID,427.293,VALID,26.312,VALID,17,VALID,1.21172,
2014-02-02, 10:49:04,VALID,917.275,VALID,0,VALID,65.3403,VALID,513.461,VALID,26.4292,VALID,64,VALID,1.09492,
2014-02-02, 10:50:04,VALID,917.285,VALID,0,VALID,60.8044,VALID,631.647,VALID,26.6246,VALID,233,VALID,1.1918,
2014-02-02, 10:51:04,VALID,917.255,VALID,0,VALID,63.2744,VALID,703.202,VALID,26.6657,VALID,238,VALID,0.992578,
2014-02-02, 10:52:04,VALID,917.224,VALID,0,VALID,62.2299,VALID,779.378,VALID,26.7047,VALID,258,VALID,0.55625,
2014-02-02, 10:53:04,VALID,917.215,VALID,0,VALID,61.6582,VALID,771.535,VALID,26.8024,VALID,233,VALID,0.582422,
2014-02-02, 10:54:04,VALID,917.218,VALID,0,VALID,63.1066,VALID,764.981,VALID,27.0369,VALID,12,VALID,2.48008,
2014-02-02, 10:55:04,VALID,917.218,VALID,0,VALID,59.3102,VALID,537.421,VALID,26.9978,VALID,344,VALID,1.40703,